Year,Month,Day,Hour,Minute,Value (Times are PST for barometer in hPa)
2020,10,15,00,00,1044.02
2020,10,15,00,01,1044.02
2020,10,15,00,02,1043.96
2020,10,15,00,03,1043.96
2020,10,15,00,04,1043.99
2020,10,15,00,05,1044.02
2020,10,15,00,06,1044.06
2020,10,15,00,07,1043.99
2020,10,15,00,08,1043.92
2020,10,15,00,09,1043.89
2020,10,15,00,10,1043.92
2020,10,15,00,11,1043.92
2020,10,15,00,12,1043.96
2020,10,15,00,13,1043.92
2020,10,15,00,14,1043.89
2020,10,15,00,15,1043.92
2020,10,15,00,16,1043.99
2020,10,15,00,18,1043.99
2020,10,15,00,19,1043.96
2020,10,15,00,20,1043.99
2020,10,15,00,21,1043.99
2020,10,15,00,22,1044.02
2020,10,15,00,23,1044.02
2020,10,15,00,24,1044.09
2020,10,15,00,25,1044.09
2020,10,15,00,26,1044.13
2020,10,15,00,27,1044.13
2020,10,15,00,28,1044.09
2020,10,15,00,29,1044.16
2020,10,15,00,30,1044.19
2020,10,15,00,31,1044.26
2020,10,15,00,32,1044.26
2020,10,15,00,33,1044.26
2020,10,15,00,34,1044.29
2020,10,15,00,35,1044.26
2020,10,15,00,36,1044.33
2020,10,15,00,37,1044.36
2020,10,15,00,38,1044.36
2020,10,15,00,39,1044.40
2020,10,15,00,40,1044.43
2020,10,15,00,41,1044.46
2020,10,15,00,42,1044.46
2020,10,15,00,43,1044.43
2020,10,15,00,44,1044.50
2020,10,15,00,45,1044.50
2020,10,15,00,46,1044.53
2020,10,15,00,47,1044.53
2020,10,15,00,48,1044.60
2020,10,15,00,49,1044.63
2020,10,15,00,50,1044.63
2020,10,15,00,51,1044.63
2020,10,15,00,52,1044.63
2020,10,15,00,53,1044.67
2020,10,15,00,54,1044.70
2020,10,15,00,55,1044.67
2020,10,15,00,56,1044.67
2020,10,15,00,57,1044.70
2020,10,15,00,58,1044.73
2020,10,15,00,59,1044.77
2020,10,15,01,00,1044.70
2020,10,15,01,01,1044.70
2020,10,15,01,02,1044.63
2020,10,15,01,03,1044.57
2020,10,15,01,04,1044.67
2020,10,15,01,05,1044.67
2020,10,15,01,06,1044.63
2020,10,15,01,07,1044.63
2020,10,15,01,08,1044.70
2020,10,15,01,09,1044.73
2020,10,15,01,10,1044.77
2020,10,15,01,11,1044.77
2020,10,15,01,12,1044.77
2020,10,15,01,13,1044.80
2020,10,15,01,14,1044.77
2020,10,15,01,15,1044.73
2020,10,15,01,16,1044.77
2020,10,15,01,17,1044.73
2020,10,15,01,18,1044.77
2020,10,15,01,19,1044.80
2020,10,15,01,20,1044.84
2020,10,15,01,21,1044.84
2020,10,15,01,22,1044.84
2020,10,15,01,23,1044.77
2020,10,15,01,24,1044.67
2020,10,15,01,25,1044.67
2020,10,15,01,26,1044.67
2020,10,15,01,27,1044.63
2020,10,15,01,28,1044.63
2020,10,15,01,29,1044.67
2020,10,15,01,30,1044.63
2020,10,15,01,31,1044.63
2020,10,15,01,32,1044.63
2020,10,15,01,33,1044.63
2020,10,15,01,34,1044.67
2020,10,15,01,35,1044.67
2020,10,15,01,36,1044.63
2020,10,15,01,37,1044.67
2020,10,15,01,38,1044.70
2020,10,15,01,39,1044.67
2020,10,15,01,40,1044.57
2020,10,15,01,41,1044.60
2020,10,15,01,42,1044.60
2020,10,15,01,43,1044.67
2020,10,15,01,44,1044.77
2020,10,15,01,45,1044.73
2020,10,15,01,46,1044.80
2020,10,15,01,47,1044.84
2020,10,15,01,48,1044.84
2020,10,15,01,49,1044.90
2020,10,15,01,50,1044.94
2020,10,15,01,51,1045.01
2020,10,15,01,52,1045.11
2020,10,15,01,53,1045.18
2020,10,15,01,54,1045.14
2020,10,15,01,55,1045.21
2020,10,15,01,56,1045.28
2020,10,15,01,57,1045.31
2020,10,15,01,58,1045.34
2020,10,15,01,59,1045.28
2020,10,15,02,00,1045.24
2020,10,15,02,01,1045.18
2020,10,15,02,02,1045.18
2020,10,15,02,03,1045.14
2020,10,15,02,04,1045.14
2020,10,15,02,05,1045.14
2020,10,15,02,06,1045.14
2020,10,15,02,07,1045.21
2020,10,15,02,08,1045.31
2020,10,15,02,09,1045.38
2020,10,15,02,10,1045.38
2020,10,15,02,11,1045.38
2020,10,15,02,12,1045.45
2020,10,15,02,13,1045.45
2020,10,15,02,14,1045.48
2020,10,15,02,15,1045.48
2020,10,15,02,16,1045.41
2020,10,15,02,17,1045.38
2020,10,15,02,18,1045.34
2020,10,15,02,19,1045.34
2020,10,15,02,20,1045.38
2020,10,15,02,21,1045.34
2020,10,15,02,22,1045.28
2020,10,15,02,23,1045.24
2020,10,15,02,24,1045.21
2020,10,15,02,25,1045.21
2020,10,15,02,26,1045.18
2020,10,15,02,27,1045.18
2020,10,15,02,28,1045.18
2020,10,15,02,29,1045.11
2020,10,15,02,30,1045.14
2020,10,15,02,31,1045.11
2020,10,15,02,32,1045.14
2020,10,15,02,33,1045.14
2020,10,15,02,34,1045.14
2020,10,15,02,35,1045.14
2020,10,15,02,36,1045.11
2020,10,15,02,37,1045.04
2020,10,15,02,38,1045.04
2020,10,15,02,39,1045.04
2020,10,15,02,40,1045.07
2020,10,15,02,41,1045.18
2020,10,15,02,42,1045.21
2020,10,15,02,43,1045.28
2020,10,15,02,44,1045.31
2020,10,15,02,45,1045.28
2020,10,15,02,46,1045.38
2020,10,15,02,47,1045.41
2020,10,15,02,48,1045.45
2020,10,15,02,49,1045.45
2020,10,15,02,50,1045.45
2020,10,15,02,51,1045.45
2020,10,15,02,52,1045.41
2020,10,15,02,53,1045.34
2020,10,15,02,54,1045.34
2020,10,15,02,55,1045.28
2020,10,15,02,56,1045.24
2020,10,15,02,57,1045.24
2020,10,15,02,58,1045.21
2020,10,15,02,59,1045.24
2020,10,15,03,00,1045.28
2020,10,15,03,01,1045.21
2020,10,15,03,02,1045.21
2020,10,15,03,03,1045.21
2020,10,15,03,04,1045.24
2020,10,15,03,05,1045.31
2020,10,15,03,06,1045.21
2020,10,15,03,07,1045.21
2020,10,15,03,08,1045.18
2020,10,15,03,09,1045.14
2020,10,15,03,10,1045.07
2020,10,15,03,11,1045.07
2020,10,15,03,12,1045.18
2020,10,15,03,13,1045.31
2020,10,15,03,14,1045.34
2020,10,15,03,15,1045.31
2020,10,15,03,16,1045.31
2020,10,15,03,17,1045.34
2020,10,15,03,18,1045.31
2020,10,15,03,19,1045.28
2020,10,15,03,20,1045.31
2020,10,15,03,21,1045.34
2020,10,15,03,22,1045.41
2020,10,15,03,23,1045.41
2020,10,15,03,24,1045.41
2020,10,15,03,25,1045.34
2020,10,15,03,26,1045.38
2020,10,15,03,27,1045.38
2020,10,15,03,28,1045.41
2020,10,15,03,29,1045.38
2020,10,15,03,30,1045.41
2020,10,15,03,31,1045.41
2020,10,15,03,32,1045.41
2020,10,15,03,33,1045.41
2020,10,15,03,34,1045.41
2020,10,15,03,35,1045.41
2020,10,15,03,36,1045.38
2020,10,15,03,37,1045.38
2020,10,15,03,38,1045.34
2020,10,15,03,39,1045.34
2020,10,15,03,40,1045.31
2020,10,15,03,41,1045.28
2020,10,15,03,42,1045.24
2020,10,15,03,43,1045.24
2020,10,15,03,44,1045.21
2020,10,15,03,45,1045.18
2020,10,15,03,46,1045.18
2020,10,15,03,47,1045.28
2020,10,15,03,48,1045.28
2020,10,15,03,49,1045.28
2020,10,15,03,50,1045.28
2020,10,15,03,51,1045.24
2020,10,15,03,52,1045.24
2020,10,15,03,53,1045.28
2020,10,15,03,54,1045.28
2020,10,15,03,55,1045.31
2020,10,15,03,56,1045.38
2020,10,15,03,57,1045.34
2020,10,15,03,58,1045.34
2020,10,15,03,59,1045.34
2020,10,15,04,00,1045.34
2020,10,15,04,01,1045.38
2020,10,15,04,02,1045.34
2020,10,15,04,03,1045.34
2020,10,15,04,04,1045.38
2020,10,15,04,05,1045.34
2020,10,15,04,06,1045.34
2020,10,15,04,07,1045.34
2020,10,15,04,08,1045.34
2020,10,15,04,09,1045.31
2020,10,15,04,10,1045.31
2020,10,15,04,11,1045.28
2020,10,15,04,12,1045.24
2020,10,15,04,13,1045.18
2020,10,15,04,14,1045.11
2020,10,15,04,15,1045.07
2020,10,15,04,16,1045.07
2020,10,15,04,17,1045.07
2020,10,15,04,18,1045.07
2020,10,15,04,19,1045.07
2020,10,15,04,20,1045.07
2020,10,15,04,21,1045.11
2020,10,15,04,22,1045.07
2020,10,15,04,23,1045.11
2020,10,15,04,25,1045.14
2020,10,15,04,26,1045.11
2020,10,15,04,27,1045.04
2020,10,15,04,28,1045.07
2020,10,15,04,29,1045.04
2020,10,15,04,30,1045.11
2020,10,15,04,31,1045.14
2020,10,15,04,32,1045.18
2020,10,15,04,33,1045.18
2020,10,15,04,34,1045.18
2020,10,15,04,35,1045.24
2020,10,15,04,36,1045.24
2020,10,15,04,37,1045.24
2020,10,15,04,38,1045.21
2020,10,15,04,39,1045.21
2020,10,15,04,40,1045.18
2020,10,15,04,41,1045.18
2020,10,15,04,42,1045.18
2020,10,15,04,43,1045.14
2020,10,15,04,44,1045.14
2020,10,15,04,45,1045.11
2020,10,15,04,46,1045.14
2020,10,15,04,47,1045.11
2020,10,15,04,48,1045.11
2020,10,15,04,49,1045.11
2020,10,15,04,50,1045.07
2020,10,15,04,51,1045.07
2020,10,15,04,52,1045.11
2020,10,15,04,53,1045.11
2020,10,15,04,54,1045.14
2020,10,15,04,55,1045.18
2020,10,15,04,56,1045.18
2020,10,15,04,57,1045.18
2020,10,15,04,58,1045.21
2020,10,15,04,59,1045.18
2020,10,15,05,00,1045.21
2020,10,15,05,01,1045.14
2020,10,15,05,02,1045.21
2020,10,15,05,03,1045.21
2020,10,15,05,04,1045.24
2020,10,15,05,05,1045.21
2020,10,15,05,06,1045.18
2020,10,15,05,07,1045.11
2020,10,15,05,08,1045.07
2020,10,15,05,10,1045.01
2020,10,15,05,11,1044.94
2020,10,15,05,12,1044.90
2020,10,15,05,13,1044.84
2020,10,15,05,14,1044.90
2020,10,15,05,15,1044.90
2020,10,15,05,16,1044.77
2020,10,15,05,17,1044.77
2020,10,15,05,18,1044.73
2020,10,15,05,19,1044.70
2020,10,15,05,20,1044.70
2020,10,15,05,21,1044.63
2020,10,15,05,22,1044.60
2020,10,15,05,23,1044.63
2020,10,15,05,24,1044.73
2020,10,15,05,25,1044.84
2020,10,15,05,26,1044.87
2020,10,15,05,27,1044.94
2020,10,15,05,28,1045.04
2020,10,15,05,29,1045.04
2020,10,15,05,30,1045.04
2020,10,15,05,31,1045.07
2020,10,15,05,32,1045.14
2020,10,15,05,33,1045.14
2020,10,15,05,34,1045.21
2020,10,15,05,35,1045.24
2020,10,15,05,36,1045.24
2020,10,15,05,37,1045.28
2020,10,15,05,38,1045.31
2020,10,15,05,39,1045.41
2020,10,15,05,40,1045.48
2020,10,15,05,41,1045.45
2020,10,15,05,42,1045.41
2020,10,15,05,43,1045.41
2020,10,15,05,44,1045.38
2020,10,15,05,45,1045.34
2020,10,15,05,46,1045.28
2020,10,15,05,47,1045.24
2020,10,15,05,48,1045.18
2020,10,15,05,49,1045.14
2020,10,15,05,50,1045.07
2020,10,15,05,51,1045.01
2020,10,15,05,52,1044.94
2020,10,15,05,53,1044.87
2020,10,15,05,54,1044.87
2020,10,15,05,55,1044.84
2020,10,15,05,56,1044.80
2020,10,15,05,57,1044.84
2020,10,15,05,58,1044.80
2020,10,15,05,59,1044.84
2020,10,15,06,00,1044.94
2020,10,15,06,01,1044.94
2020,10,15,06,02,1044.97
2020,10,15,06,03,1045.04
2020,10,15,06,04,1045.11
2020,10,15,06,05,1045.21
2020,10,15,06,06,1045.24
2020,10,15,06,07,1045.24
2020,10,15,06,08,1045.21
2020,10,15,06,09,1045.24
2020,10,15,06,10,1045.24
2020,10,15,06,11,1045.18
2020,10,15,06,12,1045.24
2020,10,15,06,13,1045.31
2020,10,15,06,14,1045.28
2020,10,15,06,15,1045.34
2020,10,15,06,16,1045.34
2020,10,15,06,17,1045.34
2020,10,15,06,18,1045.41
2020,10,15,06,20,1045.41
2020,10,15,06,21,1045.45
2020,10,15,06,22,1045.45
2020,10,15,06,23,1045.48
2020,10,15,06,24,1045.48
2020,10,15,06,25,1045.48
2020,10,15,06,26,1045.41
2020,10,15,06,27,1045.45
2020,10,15,06,28,1045.41
2020,10,15,06,29,1045.41
2020,10,15,06,30,1045.34
2020,10,15,06,31,1045.34
2020,10,15,06,32,1045.31
2020,10,15,06,33,1045.28
2020,10,15,06,34,1045.24
2020,10,15,06,35,1045.21
2020,10,15,06,36,1045.21
2020,10,15,06,37,1045.24
2020,10,15,06,38,1045.21
2020,10,15,06,39,1045.18
2020,10,15,06,40,1045.07
2020,10,15,06,41,1045.01
2020,10,15,06,42,1044.97
2020,10,15,06,43,1045.04
2020,10,15,06,44,1044.97
2020,10,15,06,45,1044.97
2020,10,15,06,46,1044.97
2020,10,15,06,47,1044.94
2020,10,15,06,48,1044.90
2020,10,15,06,49,1044.90
2020,10,15,06,50,1044.90
2020,10,15,06,51,1045.01
2020,10,15,06,52,1044.97
2020,10,15,06,53,1044.97
2020,10,15,06,54,1045.01
2020,10,15,06,55,1045.11
2020,10,15,06,56,1045.07
2020,10,15,06,57,1045.11
2020,10,15,06,58,1045.07
2020,10,15,06,59,1045.04
2020,10,15,07,00,1045.07
2020,10,15,07,01,1045.07
2020,10,15,07,02,1045.07
2020,10,15,07,03,1045.04
2020,10,15,07,04,1045.07
2020,10,15,07,05,1045.07
2020,10,15,07,06,1045.07
2020,10,15,07,07,1045.01
2020,10,15,07,08,1045.07
2020,10,15,07,09,1045.04
2020,10,15,07,10,1045.07
2020,10,15,07,11,1045.11
2020,10,15,07,12,1045.18
2020,10,15,07,13,1045.18
2020,10,15,07,14,1045.24
2020,10,15,07,15,1045.24
2020,10,15,07,16,1045.24
2020,10,15,07,17,1045.28
2020,10,15,07,18,1045.28
2020,10,15,07,19,1045.28
2020,10,15,07,20,1045.31
2020,10,15,07,21,1045.34
2020,10,15,07,22,1045.38
2020,10,15,07,23,1045.38
2020,10,15,07,24,1045.38
2020,10,15,07,25,1045.38
2020,10,15,07,26,1045.38
2020,10,15,07,27,1045.41
2020,10,15,07,28,1045.38
2020,10,15,07,29,1045.41
2020,10,15,07,30,1045.41
2020,10,15,07,31,1045.41
2020,10,15,07,32,1045.38
2020,10,15,07,33,1045.38
2020,10,15,07,34,1045.41
2020,10,15,07,35,1045.48
2020,10,15,07,36,1045.55
2020,10,15,07,37,1045.58
2020,10,15,07,38,1045.62
2020,10,15,07,39,1045.65
2020,10,15,07,40,1045.65
2020,10,15,07,41,1045.58
2020,10,15,07,42,1045.48
2020,10,15,07,43,1045.45
2020,10,15,07,44,1045.45
2020,10,15,07,45,1045.34
2020,10,15,07,46,1045.34
2020,10,15,07,47,1045.34
2020,10,15,07,48,1045.38
2020,10,15,07,49,1045.38
2020,10,15,07,50,1045.45
2020,10,15,07,51,1045.51
2020,10,15,07,52,1045.51
2020,10,15,07,53,1045.51
2020,10,15,07,54,1045.48
2020,10,15,07,55,1045.51
2020,10,15,07,56,1045.55
2020,10,15,07,57,1045.48
2020,10,15,07,58,1045.48
2020,10,15,07,59,1045.48
2020,10,15,08,00,1045.48
2020,10,15,08,01,1045.48
2020,10,15,08,02,1045.51
2020,10,15,08,03,1045.48
2020,10,15,08,04,1045.48
2020,10,15,08,05,1045.48
2020,10,15,08,06,1045.55
2020,10,15,08,07,1045.58
2020,10,15,08,08,1045.62
2020,10,15,08,09,1045.62
2020,10,15,08,11,1045.65
2020,10,15,08,12,1045.58
2020,10,15,08,13,1045.58
2020,10,15,08,14,1045.58
2020,10,15,08,15,1045.58
2020,10,15,08,16,1045.55
2020,10,15,08,17,1045.62
2020,10,15,08,18,1045.68
2020,10,15,08,19,1045.72
2020,10,15,08,20,1045.72
2020,10,15,08,21,1045.72
2020,10,15,08,22,1045.65
2020,10,15,08,23,1045.58
2020,10,15,08,24,1045.62
2020,10,15,08,25,1045.65
2020,10,15,08,26,1045.68
2020,10,15,08,27,1045.72
2020,10,15,08,28,1045.75
2020,10,15,08,29,1045.72
2020,10,15,08,30,1045.68
2020,10,15,08,31,1045.62
2020,10,15,08,32,1045.58
2020,10,15,08,33,1045.62
2020,10,15,08,34,1045.65
2020,10,15,08,35,1045.65
2020,10,15,08,36,1045.72
2020,10,15,08,37,1045.72
2020,10,15,08,38,1045.68
2020,10,15,08,39,1045.72
2020,10,15,08,40,1045.72
2020,10,15,08,41,1045.75
2020,10,15,08,42,1045.78
2020,10,15,08,43,1045.75
2020,10,15,08,44,1045.75
2020,10,15,08,45,1045.78
2020,10,15,08,46,1045.85
2020,10,15,08,47,1045.85
2020,10,15,08,48,1045.82
2020,10,15,08,49,1045.82
2020,10,15,08,50,1045.82
2020,10,15,08,51,1045.78
2020,10,15,08,52,1045.75
2020,10,15,08,53,1045.78
2020,10,15,08,54,1045.85
2020,10,15,08,55,1045.89
2020,10,15,08,56,1045.95
2020,10,15,08,57,1045.99
2020,10,15,08,58,1046.02
2020,10,15,08,59,1046.02
2020,10,15,09,01,1045.95
2020,10,15,09,02,1045.92
2020,10,15,09,03,1045.89
2020,10,15,09,04,1045.85
2020,10,15,09,05,1045.85
2020,10,15,09,06,1045.85
2020,10,15,09,07,1045.82
2020,10,15,09,08,1045.78
2020,10,15,09,09,1045.72
2020,10,15,09,10,1045.65
2020,10,15,09,11,1045.65
2020,10,15,09,12,1045.58
2020,10,15,09,13,1045.55
2020,10,15,09,14,1045.55
2020,10,15,09,16,1045.51
2020,10,15,09,17,1045.55
2020,10,15,09,18,1045.62
2020,10,15,09,19,1045.62
2020,10,15,09,20,1045.58
2020,10,15,09,21,1045.62
2020,10,15,09,22,1045.65
2020,10,15,09,23,1045.65
2020,10,15,09,24,1045.68
2020,10,15,09,25,1045.65
2020,10,15,09,26,1045.65
2020,10,15,09,27,1045.65
2020,10,15,09,28,1045.68
2020,10,15,09,29,1045.75
2020,10,15,09,31,1045.82
2020,10,15,09,33,1045.85
2020,10,15,09,35,1045.92
2020,10,15,09,36,1045.99
2020,10,15,09,37,1045.99
2020,10,15,09,38,1045.89
2020,10,15,09,39,1045.85
2020,10,15,09,40,1045.82
2020,10,15,09,41,1045.75
2020,10,15,09,42,1045.78
2020,10,15,09,44,1045.68
2020,10,15,09,45,1045.68
2020,10,15,09,46,1045.65
2020,10,15,09,47,1045.62
2020,10,15,09,48,1045.62
2020,10,15,09,49,1045.58
2020,10,15,09,50,1045.51
2020,10,15,09,51,1045.51
2020,10,15,09,52,1045.58
2020,10,15,09,53,1045.58
2020,10,15,09,54,1045.62
2020,10,15,09,55,1045.72
2020,10,15,09,56,1045.68
2020,10,15,09,57,1045.72
2020,10,15,09,58,1045.62
2020,10,15,09,59,1045.62
2020,10,15,10,00,1045.55
2020,10,15,10,01,1045.58
2020,10,15,10,02,1045.65
2020,10,15,10,03,1045.68
2020,10,15,10,04,1045.75
2020,10,15,10,05,1045.75
2020,10,15,10,06,1045.75
2020,10,15,10,07,1045.78
2020,10,15,10,08,1045.82
2020,10,15,10,09,1045.78
2020,10,15,10,10,1045.85
2020,10,15,10,11,1045.89
2020,10,15,10,12,1045.92
2020,10,15,10,13,1045.92
2020,10,15,10,14,1045.95
2020,10,15,10,15,1045.95
2020,10,15,10,16,1045.99
2020,10,15,10,17,1046.02
2020,10,15,10,18,1046.06
2020,10,15,10,19,1046.09
2020,10,15,10,20,1046.16
2020,10,15,10,21,1046.16
2020,10,15,10,22,1046.19
2020,10,15,10,23,1046.16
2020,10,15,10,24,1046.19
2020,10,15,10,25,1046.16
2020,10,15,10,26,1046.19
2020,10,15,10,28,1046.19
2020,10,15,10,29,1046.16
2020,10,15,10,30,1046.16
2020,10,15,10,31,1046.19
2020,10,15,10,32,1046.12
2020,10,15,10,33,1046.12
2020,10,15,10,34,1046.16
2020,10,15,10,35,1046.16
2020,10,15,10,36,1046.16
2020,10,15,10,37,1046.12
2020,10,15,10,38,1046.16
2020,10,15,10,39,1046.22
2020,10,15,10,40,1046.29
2020,10,15,10,41,1046.26
2020,10,15,10,42,1046.19
2020,10,15,10,43,1046.22
2020,10,15,10,44,1046.16
2020,10,15,10,45,1046.22
2020,10,15,10,46,1046.22
2020,10,15,10,47,1046.26
2020,10,15,10,48,1046.22
2020,10,15,10,49,1046.29
2020,10,15,10,50,1046.29
2020,10,15,10,51,1046.33
2020,10,15,10,52,1046.36
2020,10,15,10,53,1046.39
2020,10,15,10,54,1046.43
2020,10,15,10,55,1046.39
2020,10,15,10,56,1046.50
2020,10,15,10,57,1046.46
2020,10,15,10,58,1046.50
2020,10,15,10,59,1046.50
2020,10,15,11,00,1046.50
2020,10,15,11,01,1046.50
2020,10,15,11,02,1046.50
2020,10,15,11,03,1046.46
2020,10,15,11,04,1046.50
2020,10,15,11,05,1046.46
2020,10,15,11,06,1046.43
2020,10,15,11,07,1046.36
2020,10,15,11,08,1046.39
2020,10,15,11,09,1046.36
2020,10,15,11,10,1046.39
2020,10,15,11,11,1046.43
2020,10,15,11,12,1046.50
2020,10,15,11,13,1046.46
2020,10,15,11,14,1046.46
2020,10,15,11,15,1046.39
2020,10,15,11,16,1046.43
2020,10,15,11,17,1046.43
2020,10,15,11,18,1046.50
2020,10,15,11,19,1046.50
2020,10,15,11,20,1046.46
2020,10,15,11,21,1046.53
2020,10,15,11,22,1046.50
2020,10,15,11,23,1046.50
2020,10,15,11,25,1046.53
2020,10,15,11,26,1046.53
2020,10,15,11,27,1046.56
2020,10,15,11,28,1046.56
2020,10,15,11,29,1046.56
2020,10,15,11,30,1046.50
2020,10,15,11,31,1046.50
2020,10,15,11,32,1046.53
2020,10,15,11,33,1046.53
2020,10,15,11,34,1046.50
2020,10,15,11,35,1046.56
2020,10,15,11,36,1046.46
2020,10,15,11,38,1046.39
2020,10,15,11,39,1046.36
2020,10,15,11,40,1046.36
2020,10,15,11,41,1046.33
2020,10,15,11,42,1046.26
2020,10,15,11,43,1046.26
2020,10,15,11,44,1046.26
2020,10,15,11,45,1046.16
2020,10,15,11,46,1046.16
2020,10,15,11,47,1046.12
2020,10,15,11,48,1046.12
2020,10,15,11,49,1046.06
2020,10,15,11,50,1046.09
2020,10,15,11,51,1046.12
2020,10,15,11,52,1046.02
2020,10,15,11,53,1045.99
2020,10,15,11,54,1045.99
2020,10,15,11,55,1045.99
2020,10,15,11,56,1045.99
2020,10,15,11,57,1046.02
2020,10,15,11,59,1045.99
2020,10,15,12,00,1046.02
2020,10,15,12,01,1046.09
2020,10,15,12,02,1046.12
2020,10,15,12,03,1046.16
2020,10,15,12,04,1046.19
2020,10,15,12,05,1046.22
2020,10,15,12,06,1046.19
2020,10,15,12,07,1046.19
2020,10,15,12,08,1046.22
2020,10,15,12,09,1046.22
2020,10,15,12,10,1046.22
2020,10,15,12,11,1046.16
2020,10,15,12,12,1046.09
2020,10,15,12,13,1046.06
2020,10,15,12,14,1046.02
2020,10,15,12,15,1046.02
2020,10,15,12,16,1045.95
2020,10,15,12,17,1045.95
2020,10,15,12,18,1045.95
2020,10,15,12,19,1045.92
2020,10,15,12,20,1045.89
2020,10,15,12,21,1045.92
2020,10,15,12,22,1045.85
2020,10,15,12,23,1045.82
2020,10,15,12,25,1045.82
2020,10,15,12,26,1045.78
2020,10,15,12,27,1045.68
2020,10,15,12,28,1045.75
2020,10,15,12,29,1045.78
2020,10,15,12,30,1045.72
2020,10,15,12,31,1045.72
2020,10,15,12,32,1045.68
2020,10,15,12,33,1045.62
2020,10,15,12,34,1045.58
2020,10,15,12,35,1045.48
2020,10,15,12,36,1045.51
2020,10,15,12,37,1045.58
2020,10,15,12,38,1045.58
2020,10,15,12,39,1045.62
2020,10,15,12,40,1045.58
2020,10,15,12,41,1045.55
2020,10,15,12,42,1045.55
2020,10,15,12,43,1045.51
2020,10,15,12,44,1045.48
2020,10,15,12,45,1045.51
2020,10,15,12,46,1045.48
2020,10,15,12,47,1045.48
2020,10,15,12,48,1045.55
2020,10,15,12,49,1045.48
2020,10,15,12,50,1045.45
2020,10,15,12,51,1045.45
2020,10,15,12,52,1045.45
2020,10,15,12,53,1045.48
2020,10,15,12,54,1045.48
2020,10,15,12,55,1045.48
2020,10,15,12,56,1045.48
2020,10,15,12,57,1045.48
2020,10,15,12,58,1045.51
2020,10,15,12,59,1045.48
2020,10,15,13,00,1045.45
2020,10,15,13,01,1045.48
2020,10,15,13,02,1045.48
2020,10,15,13,03,1045.45
2020,10,15,13,04,1045.48
2020,10,15,13,05,1045.48
2020,10,15,13,06,1045.48
2020,10,15,13,07,1045.51
2020,10,15,13,08,1045.55
2020,10,15,13,09,1045.55
2020,10,15,13,10,1045.51
2020,10,15,13,11,1045.51
2020,10,15,13,12,1045.51
2020,10,15,13,13,1045.55
2020,10,15,13,14,1045.51
2020,10,15,13,15,1045.55
2020,10,15,13,16,1045.51
2020,10,15,13,17,1045.51
2020,10,15,13,18,1045.55
2020,10,15,13,19,1045.48
2020,10,15,13,20,1045.45
2020,10,15,13,21,1045.45
2020,10,15,13,22,1045.41
2020,10,15,13,23,1045.45
2020,10,15,13,24,1045.45
2020,10,15,13,25,1045.38
2020,10,15,13,26,1045.31
2020,10,15,13,27,1045.31
2020,10,15,13,28,1045.38
2020,10,15,13,29,1045.41
2020,10,15,13,30,1045.41
2020,10,15,13,31,1045.45
2020,10,15,13,32,1045.45
2020,10,15,13,33,1045.48
2020,10,15,13,34,1045.55
2020,10,15,13,35,1045.55
2020,10,15,13,36,1045.55
2020,10,15,13,37,1045.58
2020,10,15,13,38,1045.55
2020,10,15,13,39,1045.51
2020,10,15,13,40,1045.51
2020,10,15,13,41,1045.48
2020,10,15,13,42,1045.48
2020,10,15,13,43,1045.48
2020,10,15,13,44,1045.45
2020,10,15,13,45,1045.45
2020,10,15,13,46,1045.45
2020,10,15,13,47,1045.45
2020,10,15,13,48,1045.38
2020,10,15,13,49,1045.31
2020,10,15,13,51,1045.24
2020,10,15,13,52,1045.21
2020,10,15,13,53,1045.18
2020,10,15,13,54,1045.18
2020,10,15,13,55,1045.14
2020,10,15,13,56,1045.18
2020,10,15,13,57,1045.14
2020,10,15,13,58,1045.18
2020,10,15,13,59,1045.14
2020,10,15,14,00,1045.07
2020,10,15,14,01,1045.01
2020,10,15,14,02,1044.97
2020,10,15,14,03,1044.94
2020,10,15,14,04,1044.87
2020,10,15,14,05,1044.87
2020,10,15,14,06,1044.80
2020,10,15,14,07,1044.80
2020,10,15,14,08,1044.73
2020,10,15,14,09,1044.70
2020,10,15,14,10,1044.63
2020,10,15,14,11,1044.57
2020,10,15,14,13,1044.46
2020,10,15,14,14,1044.46
2020,10,15,14,15,1044.46
2020,10,15,14,17,1044.46
2020,10,15,14,18,1044.46
2020,10,15,14,19,1044.50
2020,10,15,14,20,1044.57
2020,10,15,14,21,1044.57
2020,10,15,14,22,1044.53
2020,10,15,14,23,1044.50
2020,10,15,14,24,1044.46
2020,10,15,14,25,1044.50
2020,10,15,14,26,1044.53
2020,10,15,14,27,1044.57
2020,10,15,14,28,1044.57
2020,10,15,14,29,1044.50
2020,10,15,14,30,1044.46
2020,10,15,14,31,1044.46
2020,10,15,14,32,1044.50
2020,10,15,14,33,1044.46
2020,10,15,14,34,1044.36
2020,10,15,14,35,1044.36
2020,10,15,14,36,1044.33
2020,10,15,14,37,1044.36
2020,10,15,14,38,1044.33
2020,10,15,14,39,1044.26
2020,10,15,14,40,1044.23
2020,10,15,14,41,1044.29
2020,10,15,14,42,1044.29
2020,10,15,14,43,1044.36
2020,10,15,14,44,1044.40
2020,10,15,14,45,1044.36
2020,10,15,14,46,1044.29
2020,10,15,14,47,1044.26
2020,10,15,14,48,1044.26
2020,10,15,14,49,1044.26
2020,10,15,14,51,1044.26
2020,10,15,14,52,1044.23
2020,10,15,14,53,1044.19
2020,10,15,14,54,1044.13
2020,10,15,14,55,1044.13
2020,10,15,14,56,1044.13
2020,10,15,14,57,1044.06
2020,10,15,14,58,1043.99
2020,10,15,14,59,1043.99
2020,10,15,15,00,1044.02
2020,10,15,15,01,1043.89
2020,10,15,15,02,1043.89
2020,10,15,15,03,1043.79
2020,10,15,15,04,1043.72
2020,10,15,15,05,1043.72
2020,10,15,15,06,1043.69
2020,10,15,15,07,1043.72
2020,10,15,15,08,1043.79
2020,10,15,15,09,1043.79
2020,10,15,15,10,1043.82
2020,10,15,15,11,1043.75
2020,10,15,15,12,1043.75
2020,10,15,15,13,1043.72
2020,10,15,15,14,1043.79
2020,10,15,15,15,1043.79
2020,10,15,15,16,1043.79
2020,10,15,15,17,1043.75
2020,10,15,15,18,1043.69
2020,10,15,15,19,1043.69
2020,10,15,15,20,1043.69
2020,10,15,15,21,1043.69
2020,10,15,15,22,1043.69
2020,10,15,15,24,1043.65
2020,10,15,15,25,1043.65
2020,10,15,15,26,1043.65
2020,10,15,15,27,1043.62
2020,10,15,15,28,1043.62
2020,10,15,15,29,1043.62
2020,10,15,15,30,1043.58
2020,10,15,15,31,1043.58
2020,10,15,15,32,1043.62
2020,10,15,15,33,1043.62
2020,10,15,15,35,1043.69
2020,10,15,15,36,1043.69
2020,10,15,15,37,1043.62
2020,10,15,15,38,1043.62
2020,10,15,15,39,1043.55
2020,10,15,15,41,1043.45
2020,10,15,15,42,1043.38
2020,10,15,15,43,1043.31
2020,10,15,15,44,1043.35
2020,10,15,15,45,1043.38
2020,10,15,15,46,1043.41
2020,10,15,15,47,1043.38
2020,10,15,15,48,1043.41
2020,10,15,15,49,1043.35
2020,10,15,15,50,1043.35
2020,10,15,15,52,1043.24
2020,10,15,15,53,1043.24
2020,10,15,15,54,1043.21
2020,10,15,15,55,1043.18
2020,10,15,15,56,1043.14
2020,10,15,15,57,1043.11
2020,10,15,15,58,1043.01
2020,10,15,15,59,1042.97
2020,10,15,16,00,1042.94
2020,10,15,16,01,1042.87
2020,10,15,16,02,1042.84
2020,10,15,16,03,1042.84
2020,10,15,16,04,1042.77
2020,10,15,16,05,1042.74
2020,10,15,16,06,1042.77
2020,10,15,16,07,1042.77
2020,10,15,16,08,1042.77
2020,10,15,16,09,1042.77
2020,10,15,16,10,1042.74
2020,10,15,16,11,1042.74
2020,10,15,16,12,1042.64
2020,10,15,16,13,1042.60
2020,10,15,16,14,1042.64
2020,10,15,16,15,1042.60
2020,10,15,16,16,1042.64
2020,10,15,16,17,1042.67
2020,10,15,16,19,1042.70
2020,10,15,16,20,1042.74
2020,10,15,16,21,1042.80